This is the latest recevied weather packets stored in our database for station/object VR2OT-10. If no packets are shown the sender has not sent any weather packets the latest 10 day(s).
| Time | Temp. | Humidity | Pressure | Rain* | Wind** | Luminosity | Snow |
|---|---|---|---|---|---|---|---|
| 1787490634 | 29.44° C | 80% | 1001.3 hPa | - | 2.24 m/s, 270° | - | - |
| 1787489732 | 29.44° C | 80% | 1001.3 hPa | - | 2.68 m/s, 270° | - | - |
| 1787488834 | 29.44° C | 79% | 1001.2 hPa | - | 2.68 m/s, 270° | - | - |
| 1787487932 | 29.44° C | 78% | 1000.8 hPa | - | 2.24 m/s, 225° | - | - |
| 1787486133 | 29.44° C | 79% | 1000.7 hPa | - | 1.34 m/s, 270° | - | - |
| 1787485234 | 29.44° C | 80% | 1000.6 hPa | - | 2.68 m/s, 270° | - | - |
| 1787484331 | 28.89° C | 76% | 1000.2 hPa | - | 2.68 m/s, 270° | - | - |
| 1787483434 | 29.44° C | 77% | 1000.2 hPa | - | 1.79 m/s, 270° | - | - |
| 1787482533 | 29.44° C | 75% | 1000.7 hPa | - | 1.79 m/s, 225° | - | - |
| 1787481631 | 29.44° C | 75% | 1000.6 hPa | - | 1.34 m/s, 225° | - | - |
| 1787478932 | 29.44° C | 73% | 1000.1 hPa | - | 1.34 m/s, 225° | - | - |
| 1787478034 | 29.44° C | 74% | 1000 hPa | - | 1.79 m/s, 225° | - | - |
| 1787477133 | 30° C | 74% | 999.7 hPa | - | 1.79 m/s, 225° | - | - |
| 1787476231 | 30° C | 75% | 999.7 hPa | - | 2.24 m/s, 225° | - | - |
| 1787475333 | 29.44° C | 75% | 999.5 hPa | - | 1.34 m/s, 225° | - | - |
| 1787474434 | 29.44° C | 73% | 999.5 hPa | - | 2.24 m/s, 225° | - | - |
| 1787472634 | 29.44° C | 75% | 999.7 hPa | - | 2.24 m/s, 225° | - | - |
| 1787471733 | 30.56° C | 74% | 999.7 hPa | - | 1.79 m/s, 270° | - | - |
| 1787470831 | 30.56° C | 74% | 999.7 hPa | - | 1.79 m/s, 270° | - | - |
| 1787469933 | 30.56° C | 73% | 999.8 hPa | - | 1.79 m/s, 225° | - | - |
| 1787469034 | 30.56° C | 73% | 999.9 hPa | - | 2.68 m/s, 225° | - | - |
| 1787467233 | 31.11° C | 72% | 1000.2 hPa | - | 2.68 m/s, 270° | - | - |
| 1787465431 | 31.67° C | 72% | 1000.7 hPa | - | 3.58 m/s, 270° | - | - |
| 1787464533 | 31.67° C | 71% | 1000.8 hPa | - | 2.68 m/s, 225° | - | - |
| 1787461834 | 31.67° C | 73% | 1001.1 hPa | - | 2.24 m/s, 225° | - | - |
* Rain since midnight (hover to see other rain measurements)
** Current wind speed in m/s (hover to see current wind gust speed)